TimeCST,TemperatureF,Dew PointF,Humidity,Sea Level PressureIn,VisibilityMPH,Wind Direction,Wind SpeedMPH,Gust SpeedMPH,PrecipitationIn,Events,Conditions,WindDirDegrees,DateUTC
12:17 AM,35.6,33.8,93,30.08,1.8,Calm,Calm,-,N/A,,Clear,0,2013-02-14 06:17:00
12:29 AM,35.6,35.6,100,30.07,4.0,Calm,Calm,-,N/A,,Clear,0,2013-02-14 06:29:00
12:41 AM,35.6,33.8,93,30.07,2.5,Calm,Calm,-,N/A,,Partly Cloudy,0,2013-02-14 06:41:00
12:44 AM,33.8,33.8,100,30.07,1.0,Calm,Calm,-,N/A,,Mist,0,2013-02-14 06:44:00
12:50 AM,33.8,33.8,100,30.08,0.2,Calm,Calm,-,N/A,Fog,Fog,0,2013-02-14 06:50:00
12:58 AM,34.0,34.0,100,30.08,0.2,Calm,Calm,-,N/A,Fog,Fog,0,2013-02-14 06:58:00
1:12 AM,33.8,33.8,100,30.07,0.2,Calm,Calm,-,N/A,Fog,Fog,0,2013-02-14 07:12:00
1:26 AM,33.8,33.8,100,30.08,0.5,Calm,Calm,-,N/A,Fog,Fog,0,2013-02-14 07:26:00
1:48 AM,33.8,33.8,100,30.07,0.2,Calm,Calm,-,N/A,Fog,Fog,0,2013-02-14 07:48:00
1:58 AM,33.1,33.1,100,30.07,0.2,South,3.5,-,N/A,Fog,Fog,170,2013-02-14 07:58:00
2:46 AM,32.0,32.0,100,30.07,0.2,Calm,Calm,-,N/A,Fog,Fog,0,2013-02-14 08:46:00
2:58 AM,32.0,32.0,100,30.07,0.5,Calm,Calm,-,N/A,Fog,Fog,0,2013-02-14 08:58:00
3:05 AM,32.0,30.2,93,30.07,0.2,Calm,Calm,-,N/A,Fog,Fog,0,2013-02-14 09:05:00
3:25 AM,30.2,30.2,100,30.08,0.2,Calm,Calm,-,N/A,Fog,Light Freezing Fog,0,2013-02-14 09:25:00
3:36 AM,30.2,30.2,100,30.07,0.2,Calm,Calm,-,N/A,Fog,Light Freezing Fog,0,2013-02-14 09:36:00
3:58 AM,30.9,30.9,100,30.08,0.2,Calm,Calm,-,N/A,Fog,Light Freezing Fog,0,2013-02-14 09:58:00
4:58 AM,30.9,30.9,100,30.10,0.2,South,3.5,-,N/A,Fog,Light Freezing Fog,190,2013-02-14 10:58:00
5:06 AM,30.2,30.2,100,30.10,0.2,South,3.5,-,N/A,Fog,Light Freezing Fog,190,2013-02-14 11:06:00
5:21 AM,30.2,30.2,100,30.11,0.2,South,5.8,-,N/A,Fog,Light Freezing Fog,190,2013-02-14 11:21:00
5:58 AM,32.0,32.0,100,30.12,0.2,SSW,3.5,-,N/A,Fog,Fog,200,2013-02-14 11:58:00
6:58 AM,32.0,32.0,100,30.11,0.2,Calm,Calm,-,N/A,Fog,Fog,0,2013-02-14 12:58:00
7:58 AM,32.0,32.0,100,30.13,0.2,Calm,Calm,-,N/A,Fog,Fog,0,2013-02-14 13:58:00
8:24 AM,33.8,33.8,100,30.14,0.2,Calm,Calm,-,N/A,Fog,Fog,0,2013-02-14 14:24:00
8:47 AM,37.4,37.4,100,30.16,0.8,South,4.6,-,N/A,,Overcast,170,2013-02-14 14:47:00
8:58 AM,37.0,37.0,100,30.17,3.0,South,4.6,-,N/A,,Mostly Cloudy,180,2013-02-14 14:58:00
9:05 AM,37.4,37.4,100,30.16,10.0,South,4.6,-,N/A,,Clear,180,2013-02-14 15:05:00
9:58 AM,46.0,39.0,76,30.15,10.0,South,3.5,-,N/A,,Clear,170,2013-02-14 15:58:00
10:58 AM,50.0,39.0,66,30.15,10.0,SSW,4.6,-,N/A,,Partly Cloudy,210,2013-02-14 16:58:00
11:58 AM,52.0,37.0,57,30.12,10.0,Calm,Calm,-,N/A,,Clear,0,2013-02-14 17:58:00
12:58 PM,55.9,34.0,44,30.10,10.0,WNW,5.8,-,N/A,,Clear,300,2013-02-14 18:58:00
1:58 PM,57.0,34.0,42,30.08,10.0,Calm,Calm,-,N/A,,Clear,0,2013-02-14 19:58:00
2:58 PM,55.9,34.0,44,30.07,10.0,Variable,3.5,-,N/A,,Clear,0,2013-02-14 20:58:00
3:58 PM,57.9,34.0,41,30.06,10.0,Calm,Calm,-,N/A,,Clear,0,2013-02-14 21:58:00
4:58 PM,57.9,35.1,42,30.07,10.0,Calm,Calm,-,N/A,,Clear,0,2013-02-14 22:58:00
5:58 PM,48.0,43.0,83,30.08,10.0,Calm,Calm,-,N/A,,Clear,0,2013-02-14 23:58:00
6:58 PM,44.1,41.0,89,30.09,10.0,Calm,Calm,-,N/A,,Clear,0,2013-02-15 00:58:00
7:58 PM,42.1,39.9,92,30.10,10.0,Calm,Calm,-,N/A,,Clear,0,2013-02-15 01:58:00
8:58 PM,39.9,39.0,97,30.11,10.0,Calm,Calm,-,N/A,,Clear,0,2013-02-15 02:58:00
9:58 PM,37.9,37.0,97,30.11,10.0,Calm,Calm,-,N/A,,Clear,0,2013-02-15 03:58:00
10:58 PM,37.9,37.0,97,30.11,10.0,Calm,Calm,-,N/A,,Clear,0,2013-02-15 04:58:00
11:58 PM,36.0,35.1,97,30.11,10.0,Calm,Calm,-,N/A,,Clear,0,2013-02-15 05:58:00